CZ-4B DEB

Satellite information

Favourite Embed

Satellite Type and Status

DEBRISIN ORBIT

Key statistics

Satellite CZ-4B DEB at a glance.

Uptime

5501

Days in orbit

Revolutions

≈ 14.8

Per day

Orbit

SSO

Sun Synchronous Orbit

Inclination

97.7

Latest

Satellite identification and parameters

Extended collection of information and parameters for CZ-4B DEB.

Object identification

Identified? True

Debris? True

Object name: CZ-4B DEB

International designator: 2010-051H

Object number (NORAD): 38326

Object ID (CCSDS): 38326

Country: PEOPLES REPUBLIC OF CHINA (PRC)

Current information (Y/N): Y

RCS size: SMALL

Orbital parameters

Period: 97.26 minutes

Inclination: 97.7234 deg

SMA: 7005.672 km

Apoapsis: 710.534 km

Periapsis: 544.54 km

RAAN: 1.1861 deg

Eccentricy: 0.0118471

Argument of periapsis: 285.9474 deg

Mean anomaly: 72.8712 deg

Mean motion: 14.80566919 rev/day

Mean motion (dot): 0.00010124 rev/day2

B* drag term: 0.0011762246 1/REarth

Two-line elements (TLE)

Creation date: Oct. 27, 2025, 10:32 a.m.

Reference frame: TEME

Reference center: EARTH

Epoch: Oct. 27, 2025, 2:44 a.m. UTC

TLE line 0: 0 CZ-4B DEB

TLE line 1: 1 38326U 10051H 25300.11457151 .00010124 00000-0 11762-2 0 9991

TLE line 2: 2 38326 97.7234 1.1861 0118471 285.9474 72.8712 14.80566919787428

Live tracking on map

Real-time ground track for satellite CZ-4B DEB.

In-orbit conjunctions

A list of the most updated potential collisions computed for object CZ-4B DEB.

Target Orbit TCA Probability of collision Miss distance Type
SL-14 R/B LEO 2024-11-12 13:15:48 0.0002535088 586.0 (m) ROCKET BODY
OSCAR 17 (DOVE) SSO 2024-08-09 17:43:19 0.0001515914 522.0 (m) PAYLOAD

Associated space launch

CZ-4B DEB was lifted into orbit during the mission ‘Long March 4B | Shijian 6G & Shijian 6H’, on board a Long March 4B space rocket.

The launch took place on Oct. 6, 2010, 12:49 a.m. from Launch Complex 7.

For more information about the launch, click the button.

Launch to space Long March 4B | Shijian 6G & Shijian 6H
Long March 4B | Shijian 6G & Shijian 6H

Agency: N/A

Status: Launch Successful

Launch date: Oct. 6, 2010, 12:49 a.m. UTC

Rocket: Long March 4B

Launch pad: Launch Complex 7

Location: Taiyuan Satellite Launch Center, People's Republic of China

...

Latest news about this satellite

There are no fresh news available about this satellite. Check back as we update our databases every day.


Newsletter sign-up

Weekly statistics, charts and insights to help you stay on top of the space industry.